User: anonymous   Login
Location: Deer Path Park
(40.5570°N, 74.8450°W)
Time: 14:34:28
(UTC-04:00)
Language:

Iridium 49 - Orbit

View from above orbital plane
View from above orbital plane
View from above satellite
View from above satellite

Ground track
Ground track

The orbit data is extracted from the following two-line orbital elements,

1 25108U 97082E   16273.47156150  .00000216  00000-0  70114-4 0  9996
2 25108  86.4007   4.4133 0002287  98.3556  24.7118 14.34218090983008
Epoch (UTC): 29 September 2016 11:19:02
Eccentricity: 0.0002287
inclination: 86.4007°
perigee height: 776 km
apogee height: 779 km
right ascension of ascending node: 4.4133°
argument of perigee: 98.3556°
revolutions per day: 14.34218090
mean anomaly at epoch: 24.7118°
orbit number at epoch: 98300

The dashed part of the orbit path shows where the satellite is in the earth's shadow,  

DLR